Regional Weather Roundup
Issued by NWS

Home | Current Version | Previous Version | Text Only | Print | Product List | Glossary Off
Versions: 1 2 3 4 5 6 7 8 9 10 11 12 13 14 15 16 17 18 19 20 21 22 23 24 25 26 27 28 29 30 31 32 33 34 35 36 37 38 39 40 41 42 43 44 45 46 47 48 49 50

000
ASUS43 KFSD 290902
RWRSD

WEATHER ROUNDUP FOR SOUTH DAKOTA
NATIONAL WEATHER SERVICE SIOUX FALLS SD
300 AM CST SAT NOV 29 2014

NOTE: "FAIR" INDICATES FEW OR NO CLOUDS BELOW 12,000 FEET WITH NO
SIGNIFICANT WEATHER AND/OR OBSTRUCTIONS TO VISIBILITY.


SDZ001>005-009-010-012>017-291000-
NORTHWEST AND NORTH CENTRAL SOUTH DAKOTA

CITY           SKY/WX    TMP DP  RH WIND       PRES   REMARKS
BUFFALO          N/A     41  24  51 SW13      29.30F
FAITH            N/A     34  26  72 SW13      29.38F WCI  25
MOBRIDGE       PTCLDY    25  22  88 SE7       29.36S WCI  17
$$

SDZ012>016-024>037-041>051-057-063-072>074-291000-
SOUTHWEST AND SOUTH CENTRAL SOUTH DAKOTA

CITY           SKY/WX    TMP DP  RH WIND       PRES   REMARKS
RAPID CTY ARPT CLEAR     53  16  23 W12       29.46R
PIERRE         CLEAR     24  22  91 CALM      29.41S
CUSTER         CLEAR     43  14  31 W8        29.56S
ELLSWORTH AFB  CLEAR     56  18  22 W12       29.45R
PHILIP         CLEAR     41  24  51 W8        29.44R
PINE RIDGE     CLEAR     53  19  26 SW13      29.54R
WINNER         FAIR      53  21  28 SW16      29.45S
$$

SDZ004>011-016>023-039-040-291000-
NORTHEAST SOUTH DAKOTA

CITY           SKY/WX    TMP DP  RH WIND       PRES   REMARKS
ABERDEEN       PTCLDY    24  20  84 S7        29.44S WCI  16
WATERTOWN      CLEAR     23  20  88 S12       29.44F WCI  12
SISSETON         N/A     19  18  95 S14       29.46F WCI   6
$$

SDZ017-020-022-023-036>040-048>070-291000-
SOUTHEAST SOUTH DAKOTA

CITY           SKY/WX    TMP DP  RH WIND       PRES   REMARKS
SIOUX FALLS    CLEAR     21  19  92 E3        29.47F
HURON          CLEAR     25  23  92 S9        29.44S WCI  15
MITCHELL       PTCLDY    24  22  91 SE6       29.47S FOG     WCI  17
YANKTON        CLEAR     25  21  86 E3        29.49F
$$

ABBREVIATIONS USED IN REMARKS
   TC - TEMPERATURE IN CELSIUS
  WCI - WIND CHILL INDEX
   HX - HEAT INDEX
  VSB - VISIBILITY



USA.gov is the U.S. government's official web portal to all federal, state and local government web resources and services.